When you browse on this site, cookies collect data to enhance your experience and personalize the content and advertising you see.
Visit our Privacy Policy to learn more. By continuing to use the site, you agree to this use of cookies and data.
  • în România
  • Lista ţărilor
  • Pe 7 zile
  • Temperatura apei
  • Hartă satelitară
  • Meteo pe hartă
  • Widget-uri
  • user-avatar
    Intrare

    Meteo pe oră la Lormont

    Astăzi, 20 Iunie, Joi

    Timp Temperatura Precipitaţii Vânt Presiune Umiditate
    00:00 +17°C° 0 mm 2 m/s 762 mmHg 87%
    01:00 +17°C° 0 mm 2 m/s 762 mmHg 87%
    02:00 +18°C° 0 mm 2 m/s 761 mmHg 87%
    03:00 +18°C° 0 mm 2 m/s 761 mmHg 87%
    04:00 +18°C° 0 mm 2 m/s 762 mmHg 88%
    05:00 +17°C° 0 mm 2 m/s 762 mmHg 88%
    06:00 +18°C° 0 mm 1 m/s 762 mmHg 89%
    07:00 +19°C° 0 mm 1 m/s 762 mmHg 83%
    08:00 +20°C° 0 mm 1 m/s 762 mmHg 78%
    09:00 +21°C° 0 mm 1 m/s 762 mmHg 72%
    10:00 +22°C° 0 mm 1 m/s 762 mmHg 67%
    11:00 +23°C° 0 mm 1 m/s 762 mmHg 62%
    12:00 +24°C° 0 mm 1 m/s 763 mmHg 57%
    13:00 +24°C° 0 mm 2 m/s 762 mmHg 57%
    14:00 +24°C° 0 mm 2 m/s 762 mmHg 56%
    15:00 +24°C° 0 mm 3 m/s 762 mmHg 56%
    16:00 +22°C° 0 mm 3 m/s 762 mmHg 59%
    17:00 +21°C° 0 mm 4 m/s 762 mmHg 62%
    18:00 +20°C° 0 mm 4 m/s 762 mmHg 66%
    19:00 +19°C° 0 mm 3 m/s 762 mmHg 68%
    20:00 +17°C° 0 mm 3 m/s 762 mmHg 70%
    21:00 +16°C° 0 mm 3 m/s 763 mmHg 73%
    22:00 +16°C° 0 mm 3 m/s 763 mmHg 73%
    23:00 +14°C° 0 mm 3 m/s 763 mmHg 74%

    Mâine, 21 Iunie, Vineri

    Timp Temperatura Precipitaţii Vânt Presiune Umiditate
    00:00 +14°C° 0 mm 3 m/s 763 mmHg 75%
    01:00 +14°C° 0 mm 3 m/s 763 mmHg 76%
    02:00 +14°C° 0 mm 3 m/s 762 mmHg 78%
    03:00 +14°C° 0 mm 3 m/s 762 mmHg 79%
    04:00 +15°C° 0.4 mm 2 m/s 762 mmHg 82%
    05:00 +15°C° 0.4 mm 2 m/s 762 mmHg 85%
    06:00 +15°C° 0.4 mm 2 m/s 763 mmHg 88%
    07:00 +15°C° 0.3 mm 2 m/s 763 mmHg 88%
    08:00 +15°C° 0.3 mm 2 m/s 763 mmHg 88%
    09:00 +15°C° 0.3 mm 2 m/s 764 mmHg 89%
    10:00 +16°C° 0.1 mm 3 m/s 764 mmHg 86%
    11:00 +17°C° 0.1 mm 3 m/s 764 mmHg 84%
    12:00 +17°C° 0.1 mm 3 m/s 764 mmHg 81%
    13:00 +18°C° 0 mm 3 m/s 764 mmHg 79%
    14:00 +18°C° 0 mm 3 m/s 764 mmHg 77%
    15:00 +18°C° 0 mm 3 m/s 764 mmHg 75%
    16:00 +18°C° 0 mm 3 m/s 764 mmHg 75%
    17:00 +18°C° 0 mm 3 m/s 764 mmHg 75%
    18:00 +18°C° 0 mm 3 m/s 764 mmHg 75%
    19:00 +17°C° 0 mm 3 m/s 764 mmHg 79%
    20:00 +16°C° 0 mm 2 m/s 764 mmHg 83%
    21:00 +15°C° 0 mm 2 m/s 764 mmHg 87%
    22:00 +15°C° 0 mm 2 m/s 764 mmHg 86%
    23:00 +15°C° 0 mm 1 m/s 764 mmHg 85%

    Poimâine, 22 Iunie, Sâmbătă

    Timp Temperatura Precipitaţii Vânt Presiune Umiditate
    00:00 +15°C° 0 mm 1 m/s 764 mmHg 84%
    01:00 +15°C° 0 mm 1 m/s 763 mmHg 85%
    02:00 +15°C° 0 mm 1 m/s 763 mmHg 87%
    03:00 +15°C° 0 mm 1 m/s 763 mmHg 88%
    04:00 +15°C° 0 mm 1 m/s 763 mmHg 88%
    05:00 +16°C° 0 mm 1 m/s 763 mmHg 87%
    06:00 +16°C° 0 mm 1 m/s 763 mmHg 87%
    07:00 +19°C° 0 mm 1 m/s 763 mmHg 79%
    08:00 +21°C° 0 mm 1 m/s 762 mmHg 71%
    09:00 +23°C° 0 mm 2 m/s 762 mmHg 63%
    10:00 +24°C° 0 mm 2 m/s 762 mmHg 58%
    11:00 +25°C° 0 mm 2 m/s 762 mmHg 53%
    12:00 +27°C° 0 mm 2 m/s 762 mmHg 48%
    13:00 +27°C° 0 mm 2 m/s 761 mmHg 48%
    14:00 +28°C° 0 mm 2 m/s 760 mmHg 47%
    15:00 +28°C° 0 mm 2 m/s 760 mmHg 47%
    16:00 +27°C° 0 mm 2 m/s 760 mmHg 50%
    17:00 +27°C° 0 mm 2 m/s 760 mmHg 54%
    18:00 +27°C° 0 mm 2 m/s 760 mmHg 58%
    19:00 +25°C° 0 mm 2 m/s 760 mmHg 65%
    20:00 +23°C° 0 mm 2 m/s 760 mmHg 73%
    21:00 +20°C° 0 mm 2 m/s 760 mmHg 80%
    22:00 +19°C° 0 mm 2 m/s 760 mmHg 81%
    23:00 +19°C° 0 mm 2 m/s 760 mmHg 83%

    23 Iunie, Duminică

    Timp Temperatura Precipitaţii Vânt Presiune Umiditate
    00:00 +18°C° 0 mm 2 m/s 760 mmHg 84%
    01:00 +18°C° 0 mm 2 m/s 760 mmHg 85%
    02:00 +18°C° 0 mm 2 m/s 759 mmHg 85%
    03:00 +17°C° 0 mm 2 m/s 759 mmHg 86%
    04:00 +18°C° 0 mm 2 m/s 759 mmHg 84%
    05:00 +18°C° 0 mm 3 m/s 759 mmHg 81%
    06:00 +19°C° 0 mm 3 m/s 759 mmHg 79%
    07:00 +21°C° 0 mm 3 m/s 759 mmHg 73%
    08:00 +22°C° 0 mm 4 m/s 759 mmHg 67%
    09:00 +25°C° 0 mm 4 m/s 759 mmHg 60%
    10:00 +27°C° 0 mm 4 m/s 758 mmHg 55%
    11:00 +29°C° 0 mm 4 m/s 758 mmHg 50%
    12:00 +32°C° 0 mm 4 m/s 758 mmHg 45%
    13:00 +33°C° 0 mm 4 m/s 758 mmHg 44%
    14:00 +34°C° 0 mm 4 m/s 758 mmHg 42%
    15:00 +34°C° 0 mm 3 m/s 758 mmHg 41%
    16:00 +34°C° 0 mm 3 m/s 758 mmHg 46%
    17:00 +33°C° 0 mm 3 m/s 757 mmHg 51%
    18:00 +31°C° 0 mm 3 m/s 757 mmHg 56%
    19:00 +29°C° 0 mm 2 m/s 758 mmHg 61%
    20:00 +27°C° 0 mm 2 m/s 758 mmHg 66%
    21:00 +25°C° 0 mm 2 m/s 759 mmHg 71%
    22:00 +24°C° 0 mm 2 m/s 759 mmHg 72%
    23:00 +23°C° 0 mm 2 m/s 759 mmHg 74%

    24 Iunie, Luni

    Timp Temperatura Precipitaţii Vânt Presiune Umiditate
    00:00 +21°C° 0 mm 2 m/s 759 mmHg 75%
    01:00 +21°C° 0 mm 1 m/s 759 mmHg 79%
    02:00 +21°C° 0 mm 1 m/s 759 mmHg 82%
    03:00 +20°C° 0 mm 1 m/s 759 mmHg 85%
    04:00 +20°C° 0 mm 1 m/s 759 mmHg 84%
    05:00 +21°C° 0 mm 1 m/s 759 mmHg 82%
    06:00 +21°C° 0 mm 1 m/s 759 mmHg 81%
    07:00 +23°C° 0 mm 1 m/s 759 mmHg 75%
    08:00 +25°C° 0 mm 2 m/s 760 mmHg 69%
    09:00 +27°C° 0 mm 2 m/s 760 mmHg 62%
    10:00 +29°C° 0 mm 2 m/s 760 mmHg 57%
    11:00 +30°C° 0 mm 2 m/s 760 mmHg 51%
    12:00 +32°C° 0 mm 1 m/s 760 mmHg 45%
    13:00 +32°C° 0 mm 2 m/s 760 mmHg 45%
    14:00 +34°C° 0 mm 2 m/s 759 mmHg 45%
    15:00 +34°C° 0 mm 3 m/s 759 mmHg 45%
    16:00 +32°C° 0 mm 2 m/s 759 mmHg 48%
    17:00 +32°C° 0 mm 2 m/s 759 mmHg 52%
    18:00 +31°C° 0 mm 2 m/s 759 mmHg 56%
    19:00 +29°C° 0 mm 2 m/s 759 mmHg 62%
    20:00 +27°C° 0 mm 1 m/s 760 mmHg 69%
    21:00 +25°C° 0 mm 1 m/s 760 mmHg 76%
    22:00 +24°C° 0 mm 1 m/s 760 mmHg 79%
    23:00 +24°C° 0 mm 2 m/s 760 mmHg 82%

    25 Iunie, Marţi

    Timp Temperatura Precipitaţii Vânt Presiune Umiditate
    00:00 +23°C° 0 mm 2 m/s 761 mmHg 85%
    01:00 +21°C° 0 mm 2 m/s 761 mmHg 87%
    02:00 +21°C° 0 mm 2 m/s 761 mmHg 89%
    03:00 +20°C° 0 mm 2 m/s 761 mmHg 91%
    04:00 +20°C° 0 mm 2 m/s 761 mmHg 90%
    05:00 +20°C° 0 mm 2 m/s 761 mmHg 89%
    06:00 +21°C° 0 mm 2 m/s 762 mmHg 88%
    07:00 +23°C° 0 mm 2 m/s 762 mmHg 83%
    08:00 +25°C° 0 mm 1 m/s 762 mmHg 77%
    09:00 +26°C° 0 mm 1 m/s 762 mmHg 71%
    10:00 +28°C° 0 mm 1 m/s 762 mmHg 66%
    11:00 +30°C° 0 mm 2 m/s 762 mmHg 60%
    12:00 +31°C° 0 mm 2 m/s 762 mmHg 54%
    13:00 +32°C° 0 mm 2 m/s 761 mmHg 53%
    14:00 +32°C° 0 mm 2 m/s 761 mmHg 51%
    15:00 +34°C° 0 mm 2 m/s 761 mmHg 50%
    16:00 +32°C° 0 mm 2 m/s 761 mmHg 54%
    17:00 +31°C° 0 mm 2 m/s 761 mmHg 57%
    18:00 +31°C° 0 mm 2 m/s 761 mmHg 61%
    19:00 +29°C° 0 mm 2 m/s 761 mmHg 65%
    20:00 +28°C° 0 mm 2 m/s 762 mmHg 69%
    21:00 +26°C° 0 mm 2 m/s 762 mmHg 73%
    22:00 +26°C° 0 mm 2 m/s 762 mmHg 74%
    23:00 +25°C° 0 mm 1 m/s 762 mmHg 76%
    Arată mai mult